Location: �quirre
(50.4736°N, 2.2351°E)
Time: 03:27:02
(UTC+00:00)

Cosmos 2333 - Pass Details

Date: 07 August 2020
Orbit: 830 x 866 km, 70.9° (Epoch: 25 September)

Event Time Altitude Azimuth Distance (km) Brightness Sun altitude
Rises 00:00:05 0° 328° (NNW) 3,461 8.3 -23.2°
Reaches altitude 10° 00:02:35 10° 327° (NNW) 2,520 7.4 -23.2°
Maximum altitude 00:08:20 68° 245° (WSW) 931 4.2 -23.1°
Enters shadow 00:09:32 53° 189° (S) 1,050 4.3 -23.1°
